Flag for Israel Weather past 2 weeks in Rishon LeZion, Israel

Now
72 °F

Scattered clouds.


Feels Like: 72 °F
Forecast: 74 / 84 °F
Wind: 7 mph from Southeast

Location: Ben Gurion International Airport

Current Time: Oct 2, 2014 at 8:31:51 AM

Latest Report: Oct 2, 2014 at 7:50 AM


Visibility: N/A

Pressure: 29.95 "Hg

Humidity: 78%

Dew point: 64 °F

Location of Rishon LeZionLocation

Historic Weather in Rishon LeZion — Graph

°F

Rishon LeZion temperature yesterday

Maximum temperature yesterday: 84 °F (at 12:50 PM)
Minimum temperature yesterday: 68 °F (at 3:50 AM)
Average temperature yesterday: 77 °F

Past Weeks' High & Low Weather Summary

 TemperatureHumidityPressure
High100 °F (Sep 17, 1:20 PM)83% (Sep 24, 5:50 AM)30.01 "Hg (Sep 24, 5:50 AM)
Low68 °F (Sep 30, 3:20 AM)20% (Sep 17, 10:50 AM)29.68 "Hg (Sep 17, 3:50 PM)
Average79 °F61%29.92 "Hg
* Reported Sep 17 7:20 AM — Oct 2 7:20 AM, Rishon LeZion, Weather by CustomWeather, © 2014

Note: Actual official high and low records may vary slightly from our data, if they occured in-between our weather recording intervals... More about our weather records

Advertising

Rishon LeZion weather history for previous 24 hours

 ConditionsComfort  
Time TempWeatherWind HumidityBarometerVisibility
7:20 AM
Oct 2
72 °FScattered clouds.3 mph78%29.95 "HgN/A
6:50 AM70 °FPassing clouds.7 mph78%29.95 "HgN/A
6:20 AM72 °FPassing clouds.5 mph73%29.92 "HgN/A
5:50 AM72 °FLight rain. Passing clouds.9 mph73%29.92 "HgN/A
5:20 AM73 °FPassing clouds.2 mph65%29.92 "HgN/A
4:50 AM73 °FPassing clouds.3 mph69%29.92 "HgN/A
4:20 AM73 °FPassing clouds.5 mph69%29.92 "HgN/A
3:50 AM73 °FPassing clouds.5 mph69%29.92 "HgN/A
3:20 AM75 °FPassing clouds.2 mph65%29.92 "HgN/A
2:50 AM77 °FPassing clouds.7 mph61%29.92 "HgN/A
2:20 AM75 °FPassing clouds.8 mph69%29.92 "HgN/A
1:50 AM77 °FPassing clouds.8 mph65%29.92 "HgN/A
1:20 AM77 °FPassing clouds.8 mph65%29.92 "HgN/A
12:50 AM77 °FPassing clouds.9 mph65%29.92 "HgN/A
12:20 AM77 °FPassing clouds.9 mph61%29.92 "HgN/A
11:50 PM
Oct 1
77 °FPassing clouds.9 mph61%29.92 "HgN/A
11:20 PM77 °FPassing clouds.9 mph61%29.92 "HgN/A
10:50 PM77 °FPassing clouds.6 mph61%29.92 "HgN/A
10:20 PM77 °FPassing clouds.6 mph61%29.92 "HgN/A
9:50 PM77 °FPassing clouds.8 mph61%29.95 "HgN/A
9:20 PM79 °FPassing clouds.10 mph58%29.95 "HgN/A
8:50 PM79 °FPassing clouds.8 mph61%29.95 "HgN/A
8:20 PM79 °FPassing clouds.9 mph61%29.92 "HgN/A
7:50 PM79 °FPassing clouds.8 mph61%29.92 "HgN/A
7:20 PM79 °FThundershowers. Overcast.6 mph61%29.92 "HgN/A
6:50 PM79 °FPassing clouds.10 mph58%29.92 "HgN/A
6:20 PM81 °FScattered clouds.8 mph54%29.92 "HgN/A
5:50 PM81 °FScattered clouds.13 mph54%29.89 "HgN/A
5:20 PM81 °FScattered clouds.14 mph54%29.89 "HgN/A
4:50 PM82 °FScattered clouds.13 mph51%29.89 "HgN/A
4:20 PM82 °FScattered clouds.12 mph51%29.89 "HgN/A
3:50 PM82 °FScattered clouds.13 mph51%29.89 "HgN/A
3:20 PM84 °FScattered clouds.14 mph48%29.89 "HgN/A
2:50 PM82 °FScattered clouds.13 mph51%29.89 "HgN/A
2:20 PM84 °FScattered clouds.14 mph51%29.89 "HgN/A
1:50 PM84 °FScattered clouds.13 mph48%29.92 "HgN/A
1:20 PM84 °FScattered clouds.13 mph51%29.92 "HgN/A
12:50 PM84 °FScattered clouds.10 mph51%29.92 "HgN/A
12:20 PM82 °FScattered clouds.9 mph51%29.92 "HgN/A
11:50 AM82 °FScattered clouds.7 mph51%29.92 "HgN/A
11:20 AM82 °FScattered clouds.10 mph51%29.95 "HgN/A
10:50 AM82 °FScattered clouds.2 mph51%29.95 "HgN/A
10:20 AM82 °FPassing clouds.2 mph51%29.95 "HgN/A
9:50 AM81 °FPassing clouds.1 mph58%29.95 "HgN/A
9:20 AM79 °FPassing clouds.3 mph58%29.95 "HgN/A
8:50 AM75 °FPassing clouds.3 mph61%29.95 "HgN/A
8:20 AM73 °FPassing clouds.2 mph61%29.95 "HgN/A
Weather by CustomWeather, © 2014

See weather overviewHow to use our weather pages